{"data":{"norad_id":64840,"intl_designator":"2025-135BT","name":"LEMUR-2-HUBBLE-5","alt_names":[],"object_type":"PAYLOAD","status":"ACTIVE","operator":null,"country":"US","launch_date":"2025-06-23","launch_site_code":"AFWTR","launch_vehicle":null,"mission":null,"orbit_class":"UNKNOWN","rcs_meters":null,"size_class":null,"mass_kg":null,"dimensions":null,"purposes":["earth_obs"],"wikipedia_slug":null,"has_3d_model":false,"image_url":null,"decayed_at":null,"tle_current":{"epoch":"2026-09-19T13:50:51.976608Z","epoch_age_seconds":94186,"freshness":"FRESH","line1":"1 64840U 25135BT  26262.57699047  .00000777  00000+0  77518-4 0  9995","line2":"2 64840  97.7790  16.1803 0006155  37.1721 322.9924 14.94370182 68004","mean_motion":14.94370182,"eccentricity":0.0006155,"inclination_deg":97.779,"raan_deg":16.1803,"arg_perigee_deg":37.1721,"mean_anomaly_deg":322.9924,"bstar":7.7518e-5,"rev_number":6800,"period_min":96.361665760271,"perigee_km":580.04293624809,"apogee_km":588.61373107383,"semimajor_km":6962.465333661,"source":"CELESTRAK","updated_at":"2026-09-20T09:00:34.877986Z"}}}